Starlink 31311

operational
NORAD ID: 58948 Int'l Des: 2024-027 Owner: SPXS Country: US Constellation: starlink
LEOCIRCULAR

关于 Starlink 31311

正在加载描述...

实时位置

正在加载3D地球...

即将过境

高度历史

Altitude vs Time

uPlot chart will show altitude changes over time

两行轨道根数

1 58948U 24027T 25354.16229058 -.00000153 00000-0 69758-5 0 9991
2 58948 53.1619 316.8056 0001255 81.6690 278.4453 15.30189159105183
Epoch: Dec 20, 2025 • Age: 5 hours

当前状态

高度 477.9 km
速度 7.63 km/s
星下点 -9.48°S, 91.38°E
发射日期 Feb 10, 2024
运行时间 1.8 years
类型 internet

技术详情

分类 Payload
质量 730.00 kg
干质量 700.00 kg
总质量 730.00 kg
长度 0.30 m
直径 4.10 m
跨度 29.00 m
形状 Box + pan
制造商 SPXS
平台类型 Starlink V2M
阶段状态 In Orbit
所有者/国家 SPXS/US

大型星座

Loading constellations...